Weather in Gali

Abkhazia     42°37′38″N   41°44′12″E
temp.,
°C
wind,
m/s
gust,
m/s
humid.,
%
clouds,
%
prec.,
mm/h
press.,
hPa
HPBL,
m
12 august, fri
fri1200:00+22e119456 0.4 101126
03:00+19ene229164 0.9 101229
06:00+20ene118520 0.1 101223
09:00+24sw117619 0.3 1012497
12:00+28sw325785 0.1 10111521
15:00+28w326051 0.4 10111260
18:00+25wsw227612 0.2 1011371
21:00+21ene219682 2.8 101224
13 august, sat
sat1300:00+21ene119270 0.1 101219
03:00+19ne228314 0.1 101122
06:00+20ne227042 0.0 101025
09:00+26sw21590 0.0 1009575
12:00+30wsw224620 0.0 10071141
15:00+33ssw34330 0.0 10051395
18:00+25w22750 0.0 1006212
21:00+21ene11833 0.0 100615
14 august, sun
sun1400:00+22ne225590 0.0 100621
03:00+21ene225473 0.0 100619
06:00+20ne22520 0.0 100618
09:00+26sw21560 0.0 1006602
12:00+31wsw22370 0.0 10061148
15:00+30sw43420 0.0 1005832
18:00+25wsw22720 0.0 1006240
21:00+20ene11910 0.0 100713
15 august, mon
mon1500:00+21ene228010 0.0 100719
03:00+20ne21644 0.0 100617
06:00+21ne22570 0.0 100518
09:00+27sw21520 0.0 1004434
12:00+32w31400 0.0 1004842
15:00+35wsw32330 0.0 1003896
18:00+25wsw22770 0.0 1006332
21:00+21ne119419 0.0 100831
16 august, tue
tue1600:00+21ene119312 0.0 101013
03:00+21ne118414 0.0 101017
06:00+21ne21761 0.0 101120
09:00+26ssw21665 0.0 1011762
12:00+30sw32491 0.0 10101433
15:00+29wsw435611 0.0 10101111
18:00+26wsw23774 0.0 1011392
21:00+22ene119648 0.1 101311